Location: Unspecified
(50.7693°N, 0.0000°E)
Time: 13:30:03
(UTC+00:00)

Transit 2A - All Passes

Search period start: 25 June 2019 00:00
Search period end: 05 July 2019 00:00
Orbit: 593 x 966 km, 66.7° (Epoch: 24 June)

Date Brightness Start Highest point End Pass type
(mag) Time Alt. Az. Time Alt. Az. Time Alt. Az.
25 Jun - 00:27:42 10° SW 00:34:07 74° NW 00:40:18 10° NE visible
25 Jun - 02:13:03 10° W 02:18:20 27° NNW 02:23:25 10° NNE visible
25 Jun - 03:59:43 10° NW 04:03:39 17° N 04:07:24 10° NE daylight
25 Jun - 05:44:23 10° NNW 05:49:04 23° NNE 05:53:24 10° ENE daylight
25 Jun - 07:27:42 10° NW 07:33:28 64° NE 07:38:36 10° SE daylight
25 Jun - 09:11:38 10° NW 09:16:14 27° WSW 09:20:26 10° SSW daylight
25 Jun - 22:12:46 10° SSE 22:17:22 21° ESE 22:21:54 10° ENE visible
25 Jun - 23:53:32 10° SW 23:59:57 87° SE 00:06:10 10° NE visible
26 Jun - 01:38:21 10° W 01:43:56 31° NNW 01:49:17 10° NNE visible
26 Jun - 03:25:01 10° NW 03:29:05 18° N 03:32:58 10° NNE daylight
26 Jun - 05:10:11 10° NNW 05:14:35 21° NNE 05:18:41 10° ENE daylight
26 Jun - 06:53:35 10° NNW 06:59:14 50° NE 07:04:18 10° ESE daylight
26 Jun - 08:37:14 10° NW 08:42:20 37° WSW 08:46:56 10° S daylight
26 Jun - 21:40:01 10° SE 21:43:32 16° ESE 21:47:02 10° ENE visible
26 Jun - 23:19:30 10° SSW 23:25:51 69° ESE 23:32:01 10° NE visible
27 Jun - 01:03:42 10° WSW 01:09:34 37° NW 01:15:12 10° NNE visible
27 Jun - 02:50:16 10° WNW 02:54:32 19° NNW 02:58:37 10° NNE visible
27 Jun - 04:35:55 10° NNW 04:40:03 19° NNE 04:43:57 10° ENE daylight
27 Jun - 06:19:28 10° NNW 06:24:56 39° NE 06:29:52 10° ESE daylight
27 Jun - 08:02:55 10° NW 08:08:22 51° WSW 08:13:15 10° SSE daylight
27 Jun - 21:08:24 10° ESE 21:09:46 11° E 21:11:09 10° E visible
27 Jun - 22:45:38 10° SSW 22:51:48 53° ESE 22:57:48 10° NE visible
28 Jun - 00:29:09 10° WSW 00:35:15 45° NW 00:41:06 10° NNE visible
28 Jun - 02:15:28 10° WNW 02:20:01 20° NNW 02:24:22 10° NNE visible
28 Jun - 04:01:33 10° NNW 04:05:30 18° N 04:09:15 10° NE daylight
28 Jun - 05:45:22 10° NNW 05:50:36 32° NNE 05:55:21 10° E daylight
28 Jun - 07:28:42 10° NW 07:34:21 69° WSW 07:39:22 10° SSE daylight
28 Jun - 09:14:19 10° WNW 09:16:22 12° W 09:18:20 10° WSW daylight
28 Jun - 22:11:57 10° S 22:17:48 40° ESE 22:23:32 10° NE visible
28 Jun - 23:54:43 10° WSW 00:01:00 56° NW 00:07:01 10° NNE visible
29 Jun - 01:40:39 10° WNW 01:45:31 23° NNW 01:50:09 10° NNE visible
29 Jun - 03:27:06 10° NW 03:30:56 17° N 03:34:37 10° NE daylight
29 Jun - 05:11:14 10° NNW 05:16:12 27° NNE 05:20:45 10° E daylight
29 Jun - 06:54:31 10° NW 07:00:16 88° ENE 07:05:21 10° SE daylight
29 Jun - 08:39:05 10° WNW 08:42:35 18° WSW 08:45:53 10° SW daylight
29 Jun - 21:38:27 10° S 21:43:51 30° ESE 21:49:09 10° NE visible
29 Jun - 23:20:24 10° SW 23:26:47 71° NW 23:32:55 10° NE visible
30 Jun - 01:05:52 10° W 01:11:03 26° NNW 01:16:01 10° NNE visible
30 Jun - 02:52:32 10° NW 02:56:22 17° N 03:00:03 10° NE visible
30 Jun - 04:37:06 10° NNW 04:41:45 23° NNE 04:46:04 10° ENE daylight
30 Jun - 06:20:23 10° NW 06:26:06 68° NE 06:31:11 10° SE daylight
30 Jun - 08:04:24 10° NW 08:08:46 24° WSW 08:12:47 10° SSW daylight
30 Jun - 21:05:12 10° SSE 21:09:58 23° ESE 21:14:39 10° ENE visible
30 Jun - 22:46:12 10° SW 22:52:37 88° NW 22:58:47 10° NE visible
01 Jul - 00:31:09 10° W 00:36:39 30° NNW 00:41:54 10° NNE visible
01 Jul - 02:17:52 10° NW 02:21:49 17° N 02:25:35 10° NNE visible
01 Jul - 04:02:54 10° NNW 04:07:16 21° NNE 04:11:21 10° ENE daylight
01 Jul - 05:46:16 10° NNW 05:51:52 52° NE 05:56:54 10° ESE daylight
01 Jul - 07:29:57 10° NW 07:34:53 34° WSW 07:39:22 10° S daylight
01 Jul - 20:32:20 10° SE 20:36:07 17° ESE 20:39:52 10° ENE daylight
01 Jul - 22:12:09 10° SSW 22:18:30 73° ESE 22:24:39 10° NE visible
01 Jul - 23:56:29 10° WSW 00:02:16 36° NW 00:07:48 10° NNE visible
02 Jul - 01:43:06 10° NW 01:47:16 18° NNW 01:51:14 10° NNE visible
02 Jul - 03:28:40 10° NNW 03:32:46 19° NNE 03:36:38 10° ENE daylight
02 Jul - 05:12:10 10° NNW 05:17:36 41° NE 05:22:30 10° ESE daylight
02 Jul - 06:55:38 10° NW 07:00:57 47° WSW 07:05:43 10° S daylight
02 Jul - 20:00:17 10° ESE 20:02:20 12° E 20:04:22 10° E daylight
02 Jul - 21:38:14 10° SSW 21:44:27 56° ESE 21:50:27 10° NE visible
02 Jul - 23:21:55 10° WSW 23:27:57 43° NW 23:33:43 10° NNE visible
03 Jul - 01:08:18 10° WNW 01:12:44 20° NNW 01:16:57 10° NNE visible
03 Jul - 02:54:20 10° NNW 02:58:13 18° N 03:01:55 10° NE visible
03 Jul - 04:38:03 10° NNW 04:43:16 33° NE 04:48:00 10° E daylight
03 Jul - 06:21:23 10° NW 06:26:56 65° WSW 06:31:52 10° SSE daylight
03 Jul - 08:07:35 10° W 08:08:52 11° W 08:10:08 10° WSW daylight
03 Jul - 21:04:29 10° S 21:10:26 42° ESE 21:16:11 10° NE visible
03 Jul - 22:47:27 10° WSW 22:53:41 53° NW 22:59:37 10° NNE visible
04 Jul - 00:33:30 10° WNW 00:38:14 22° NNW 00:42:45 10° NNE visible
04 Jul - 02:19:54 10° NW 02:23:40 17° N 02:27:15 10° NE visible
04 Jul - 04:03:56 10° NNW 04:08:53 28° NNE 04:13:24 10° E daylight
04 Jul - 05:47:12 10° NW 05:52:51 87° WSW 05:57:53 10° SE daylight
04 Jul - 07:31:58 10° WNW 07:35:07 16° WSW 07:38:06 10° SW daylight
04 Jul - 20:30:57 10° S 20:36:28 32° ESE 20:41:51 10° NE daylight
04 Jul - 22:13:06 10° SW 22:19:27 67° NW 22:25:31 10° NE visible
